Location: Berg
(47.2344°N, 9.5296°E)
Time: 17:26:14
(UTC+00:00)

AAUSAT CUBESAT 2 - Pass Details

Date: 03 December 2021
Orbit: 572 x 586 km, 97.5° (Epoch: 16 January)

Event Time Altitude Azimuth Distance (km) Brightness Sun altitude
Rises 05:21:58 0° 4° (N) 2,796 ? -14.4°
Reaches altitude 10° 05:24:16 10° 355° (N) 1,895 ? -14.0°
Maximum altitude 05:27:56 32° 292° (WNW) 1,003 ? -13.4°
Drops below altitude 10° 05:31:35 10° 228° (SW) 1,889 ? -12.8°
Sets 05:33:53 0° 219° (SW) 2,786 ? -12.5°
